Вернуться в каталог

CZ-6A DEB

АктивенPO
NORAD 54512·DEBRIS·🇨🇳 China

Запущен Nov 11, 2022 с Taiyuan Satellite Launch Center

Loading…

Ближайшие Пролёты (ближайшие 24 часа)

TLE

СвежийSource: Space-Track

Эпоха: Sep 14, 2026, 15:34 UTC

1 54512U 22151JQ  26257.64878963  .00005159  00000-0  85504-3 0  9996
2 54512  98.5848 321.5173 0087415  10.7361 349.5682 14.68195766201346

Отслеживайте CZ-6A DEB в реальном времени с AllMySat

Download on the App Store